Details From LBBG - Burgas
To LBWN - Varna
Flight Number -
Tags generated
Created
Modified
Stats Distance 42 nm / 78 km
Max Altitude 0 ft / 0 m
Waypoints 3
Social Downloads 1
Likes 0
Share VATSIM

Download

Looking for another format? Having issues loading an existing format? Contact us
Advertisement - Login to hide

Notes

Basic altitude profile: - Ascent Rate: 2500ft/min - Ascent Speed: 250kts - Cruise Altitude: 35000ft - Cruise Speed: 470kts - Descent Rate: 1800ft/min - Descent Speed: 250kts Options: - Use NATs: yes - Use PACOTS: yes - Use low airways: no - Use high airways: yes

Route

LBBG BGS LBWN

ID Type Via Altitude Latitude Longitude Leg Dist Tot Dist Heading (true) Name
O LBBG APT - 0 ft / 0 m 42.57013˚ 27.51524˚ - 0 nm - Burgas
BGS VOR - 0 ft / 0 m 42.57106˚ 27.51986˚ 0 nm 0 nm 75° / 75° BURGAS VOR-DME
O LBWN APT - 0 ft / 0 m 43.23204˚ 27.82524˚ 41 nm 42 nm 19° / 19° Varna

Altitude Profile

Advertisement - Login to hide

LBBG

Details ICAO LBBG (BOJ)
Name Burgas
Region Bulgaria
Timezone Europe/Sofia (UTC+2.0)
Stats Elevation 135 ft / 41 m (AMSL)
Location 42.570130° 27.515240°
Runways 1
Magnetic Variation 5.503° E

METAR

LBBG 160530Z 23013KT CAVOK 13/09 Q1007 NOSIG

Decode

TAF

TAF TAF LBBG 160500Z 1606/1706 24012KT 9999 SCT033 TEMPO 1606/1616 21018G30KT BECMG 1616/1618 SCT025 BKN040 TEMPO 1618/1624 5000 RA BKN020 OVC035 BECMG 1700/1702 33010KT 5000 RA BKN015 OVC030

Decode

Departure Runways

ID Width Length Bearing (true) Bearing (mag) Surface Threshold Offset Overrun Length
04 148 ft / 45 m 10,502 ft / 3,201 m 44.28° 38.78° Concrete 0 ft / 0 m 190 ft / 58 m
22 148 ft / 45 m 10,502 ft / 3,201 m 224.29° 218.79° Concrete 0 ft / 0 m 190 ft / 58 m

LBWN

Details ICAO LBWN (VAR)
Name Varna
Region Bulgaria
Timezone Europe/Sofia (UTC+2.0)
Stats Elevation 230 ft / 70 m (AMSL)
Location 43.232042° 27.825236°
Runways 1
Magnetic Variation 5.647° E

METAR

LBWN 160530Z 19006KT 160V240 9999 FEW033 13/09 Q1006 NOSIG

Decode

TAF

TAF LBWN 160500Z 1606/1706 14008KT 9999 SCT033 BECMG 1606/1608 21012KT TEMPO 1608/1616 21014G24KT BECMG 1616/1618 SCT025 BKN040 TEMPO 1618/1624 5000 RA BKN020 OVC040 BECMG 1700/1702 33018KT 5000 RA BKN015 OVC030

Decode

Destination Runways

ID Width Length Bearing (true) Bearing (mag) Surface Threshold Offset Overrun Length
09 180 ft / 55 m 8,254 ft / 2,516 m 97.11° 91.46° Concrete 350 ft / 107 m 0 ft / 0 m
27 180 ft / 55 m 8,254 ft / 2,516 m 277.13° 271.48° Concrete 350 ft / 107 m 0 ft / 0 m

Approach Navaids

Runway Type Ident Frequency Range Bearing (true) Bearing (mag) Slope Elevation
09 Localiser IWN 109.90 MHz 18 nm / 33 km 97.27° 91.62° - 230 ft / 70 m (AMSL)
09 Glidescope IWN 109.90 MHz 10 nm / 19 km 97.12° 91.48° 3.00° 230 ft / 70 m (AMSL)

Popular Alternatives